North Bend, OR

10:33 PM PST on December 09, 2016 (GMT -0800)
North Bend Municipal

Weather History for KOTH - January, 2013

Change the Weather History Date:

Sunday, January 6, 2013

  Actual Average Record
Temperature  
Mean Temperature 49 °F 46 °F  
Max Temperature 54 °F 51 °F 65 °F (2002)
Min Temperature 43 °F 40 °F 20 °F (1913)
Degree Days  
Heating Degree Days 16 19  
Month to date heating degree days 109 116  
Since 1 July heating degree days 1984 2177  
Cooling Degree Days 0 0  
Month to date cooling degree days 0 0  
Year to date cooling degree days 0 0  
Moisture  
Dew Point 44 °F    
Average Humidity 93    
Maximum Humidity 100    
Minimum Humidity 77    
Precipitation  
Precipitation 0.05 in 0.35 in 3.17 in (2002)
Month to date precipitation 0.22 2.10  
Year to date precipitation 0.22 2.10  
Sea Level Pressure  
Sea Level Pressure 30.21 in    
Wind  
Wind Speed 5 mph (SSE)    
Max Wind Speed 9 mph    
Max Gust Speed -    
Visibility 9 miles    
Events      
T = Trace of Precipitation, MM = Missing Value Source: NWS Daily Summary

Daily Weather History Graph

Daily Weather History Graph

Search for Another Location

Airport or City:

Trip Planner

Search our weather history database for the weather conditions in past years. The results will help you decide how hot, cold, wet, or windy it might be!

Date:

Astronomy

Jan. 06, 2013 Rise Set
Actual Time 7:49 AM PST 4:56 PM PST
Civil Twilight 7:17 AM PST 5:29 PM PST
Nautical Twilight 6:41 AM PST 6:04 PM PST
Astronomical Twilight 6:06 AM PST 6:39 PM PST
Moon 2:06 AM PST (1/6) 12:31 PM PST (1/6)
Length of Visible Light 10h 11m
Length of Day
9h 07m
Waning Crescent, 32% of the Moon is Illuminated
Jan 6
Waning Crescent
Jan 11
New
Jan 18
First Quarter
Jan 26
Full
Feb 3
Last Quarter

Hourly Weather History & Observations

Time (PST) Temp. Windchill Dew Point Humidity Pressure Visibility Wind Dir Wind Speed Gust Speed Precip Events Conditions
12:15 AM 42.8 °F 41.1 °F 42.8 °F 100% 30.19 in 10.0 mi SE 3.5 mph - N/A   Mostly Cloudy
12:35 AM 42.8 °F 40.1 °F 41.0 °F 93% 30.19 in 1.5 mi ESE 4.6 mph - N/A   Overcast
12:55 AM 42.8 °F 41.1 °F 42.8 °F 100% 30.19 in 0.5 mi SE 3.5 mph - N/A   Overcast
1:15 AM 42.8 °F 40.1 °F 42.8 °F 100% 30.20 in 0.5 mi ESE 4.6 mph - N/A   Overcast
1:35 AM 42.8 °F 40.1 °F 42.8 °F 100% 30.20 in 0.5 mi SE 4.6 mph - N/A   Overcast
1:55 AM 42.8 °F 41.1 °F 42.8 °F 100% 30.21 in 1.2 mi SSE 3.5 mph - N/A   Overcast
2:15 AM 42.8 °F - 42.8 °F 100% 30.21 in 1.5 mi Calm Calm - N/A   Overcast
2:35 AM 42.8 °F 40.1 °F 42.8 °F 100% 30.21 in 2.5 mi SE 4.6 mph - N/A   Overcast
2:55 AM 44.6 °F 43.1 °F 44.6 °F 100% 30.22 in 10.0 mi SSE 3.5 mph - N/A   Overcast
3:35 AM 44.6 °F 43.1 °F 42.8 °F 93% 30.22 in 4.0 mi SE 3.5 mph - N/A   Overcast
3:55 AM 44.6 °F - 44.6 °F 100% 30.22 in 5.0 mi Calm Calm - N/A   Overcast
4:15 AM 44.6 °F 43.1 °F 44.6 °F 100% 30.21 in 9.0 mi ESE 3.5 mph - N/A   Overcast
4:35 AM 44.6 °F 41.4 °F 44.6 °F 100% 30.20 in 10.0 mi SE 5.8 mph - N/A   Overcast
4:55 AM 42.8 °F 40.1 °F 42.8 °F 100% 30.20 in 10.0 mi SE 4.6 mph - N/A   Overcast
5:15 AM 44.6 °F 41.4 °F 44.6 °F 100% 30.20 in 10.0 mi SE 5.8 mph - N/A   Overcast
5:35 AM 44.6 °F 41.4 °F 42.8 °F 93% 30.19 in 10.0 mi SE 5.8 mph - N/A   Overcast
5:55 AM 44.6 °F 42.2 °F 44.6 °F 100% 30.20 in 10.0 mi SE 4.6 mph - N/A   Overcast
6:15 AM 42.8 °F 41.1 °F 42.8 °F 100% 30.21 in 10.0 mi SE 3.5 mph - N/A   Overcast
6:35 AM 44.6 °F 42.2 °F 44.6 °F 100% 30.22 in 10.0 mi SE 4.6 mph - N/A   Overcast
6:55 AM 42.8 °F 40.1 °F 42.8 °F 100% 30.23 in 10.0 mi SE 4.6 mph - N/A   Overcast
7:15 AM 42.8 °F 40.1 °F 42.8 °F 100% 30.23 in 10.0 mi SE 4.6 mph - N/A   Overcast
7:35 AM 42.8 °F 38.6 °F 41.0 °F 93% 30.23 in 10.0 mi South 6.9 mph - N/A   Overcast
7:55 AM 42.8 °F 39.3 °F 42.8 °F 100% 30.23 in 10.0 mi SSE 5.8 mph - N/A   Overcast
8:15 AM 42.8 °F 39.3 °F 42.8 °F 100% 30.23 in 10.0 mi SSE 5.8 mph - N/A   Overcast
8:35 AM 42.8 °F 38.6 °F 41.0 °F 93% 30.22 in 10.0 mi SSE 6.9 mph - N/A   Mostly Cloudy
8:55 AM 44.6 °F 41.4 °F 44.6 °F 100% 30.23 in 10.0 mi SSE 5.8 mph - N/A   Overcast
9:15 AM 44.6 °F 42.2 °F 44.6 °F 100% 30.24 in 10.0 mi South 4.6 mph - N/A   Overcast
9:35 AM 44.6 °F 43.1 °F 42.8 °F 93% 30.25 in 10.0 mi SE 3.5 mph - N/A   Overcast
9:55 AM 46.4 °F 45.2 °F 44.6 °F 93% 30.25 in 10.0 mi SSE 3.5 mph - N/A   Overcast
10:15 AM 46.4 °F 43.5 °F 46.4 °F 100% 30.24 in 10.0 mi ESE 5.8 mph - N/A   Overcast
10:35 AM 46.4 °F 42.4 °F 46.4 °F 100% 30.25 in 10.0 mi SE 8.1 mph - N/A   Overcast
10:55 AM 48.2 °F - 46.4 °F 93% 30.25 in 10.0 mi SE 5.8 mph - N/A   Overcast
11:15 AM 50.0 °F - 48.2 °F 94% 30.25 in 10.0 mi SE 3.5 mph - N/A   Overcast
11:35 AM 50.0 °F - 48.2 °F 94% 30.24 in 10.0 mi SE 6.9 mph - N/A   Overcast
11:55 AM 50.0 °F - 46.4 °F 87% 30.22 in 10.0 mi SE 5.8 mph - N/A   Overcast
12:15 PM 50.0 °F - 44.6 °F 82% 30.22 in 10.0 mi Calm Calm - N/A   Overcast
12:35 PM 51.8 °F - 44.6 °F 76% 30.21 in 10.0 mi SSW 3.5 mph - N/A   Partly Cloudy
1:15 PM 51.8 °F - 42.8 °F 71% 30.20 in 10.0 mi Calm Calm - N/A   Overcast
1:35 PM 51.8 °F - 46.4 °F 82% 30.21 in 10.0 mi WSW 6.9 mph - N/A   Overcast
1:55 PM 50.0 °F - 46.4 °F 87% 30.21 in 10.0 mi WSW 8.1 mph - N/A   Overcast
2:15 PM 50.0 °F - 44.6 °F 82% 30.20 in 10.0 mi SW 6.9 mph - N/A   Overcast
2:35 PM 51.8 °F - 44.6 °F 76% 30.19 in 10.0 mi SW 8.1 mph - N/A   Scattered Clouds
2:55 PM 50.0 °F - 44.6 °F 82% 30.19 in 10.0 mi SSW 4.6 mph - N/A   Scattered Clouds
3:15 PM 50.0 °F - 44.6 °F 82% 30.20 in 10.0 mi South 5.8 mph - N/A   Mostly Cloudy
3:35 PM 50.0 °F - 44.6 °F 82% 30.20 in 10.0 mi South 5.8 mph - N/A   Mostly Cloudy
4:15 PM 48.2 °F - 44.6 °F 87% 30.19 in 10.0 mi SSW 6.9 mph - N/A   Overcast
4:35 PM 48.2 °F - 44.6 °F 87% 30.19 in 10.0 mi South 5.8 mph - N/A   Overcast
4:55 PM 48.2 °F - 44.6 °F 87% 30.19 in 10.0 mi South 4.6 mph - N/A   Overcast
5:15 PM 48.2 °F - 44.6 °F 87% 30.19 in 10.0 mi Calm Calm - N/A   Overcast
5:35 PM 48.2 °F - 44.6 °F 87% 30.20 in 10.0 mi SSW 4.6 mph - N/A   Overcast
5:55 PM 48.2 °F - 46.4 °F 93% 30.20 in 10.0 mi South 4.6 mph - N/A   Overcast
6:15 PM 48.2 °F - 46.4 °F 93% 30.20 in 10.0 mi South 4.6 mph - N/A   Overcast
6:35 PM 46.4 °F 43.5 °F 46.4 °F 100% 30.19 in 10.0 mi SSE 5.8 mph - N/A   Overcast
7:35 PM 46.4 °F 45.2 °F 44.6 °F 93% 30.19 in 10.0 mi SSW 3.5 mph - N/A   Overcast
7:55 PM 46.4 °F 43.5 °F 44.6 °F 93% 30.19 in 10.0 mi SSW 5.8 mph - N/A   Overcast
8:15 PM 46.4 °F 42.4 °F 44.6 °F 93% 30.19 in 10.0 mi South 8.1 mph - N/A   Overcast
8:35 PM 48.2 °F - 44.6 °F 87% 30.19 in 10.0 mi South 6.9 mph - N/A   Overcast
8:55 PM 48.2 °F - 42.8 °F 82% 30.19 in 10.0 mi South 9.2 mph - N/A   Overcast
9:35 PM 46.4 °F 44.3 °F 44.6 °F 93% 30.18 in 5.0 mi South 4.6 mph - 0.01 in   Overcast
9:55 PM 46.4 °F 42.9 °F 44.6 °F 93% 30.18 in 8.0 mi South 6.9 mph - 0.01 in   Overcast
10:15 PM 46.4 °F 43.5 °F 44.6 °F 93% 30.18 in 9.0 mi South 5.8 mph - 0.01 in   Overcast
10:35 PM 44.6 °F 40.2 °F 44.6 °F 100% 30.18 in 6.0 mi South 8.1 mph - 0.01 in   Overcast
10:55 PM 44.6 °F 42.2 °F 44.6 °F 100% 30.18 in 8.0 mi SSE 4.6 mph - 0.03 in   Overcast
11:15 PM 44.6 °F 43.1 °F 44.6 °F 100% 30.18 in 10.0 mi SE 3.5 mph - 0.01 in   Overcast
11:35 PM 46.4 °F 42.9 °F 46.4 °F 100% 30.17 in 10.0 mi SSE 6.9 mph - 0.01 in   Overcast
11:55 PM 46.4 °F 44.3 °F 46.4 °F 100% 30.18 in 10.0 mi SSE 4.6 mph - 0.01 in   Overcast